Regional Weather Roundup
Issued by NWS

Home | Current Version | Previous Version | Graphics & Text | Print | Product List | Glossary On
Versions: 1 2 3 4 5 6 7 8 9 10 11 12 13 14 15 16 17 18 19 20 21 22 23 24 25 26 27 28 29 30 31 32 33 34 35 36 37 38 39 40 41 42 43 44 45 46 47 48 49 50
000
ASUS43 KBIS 260710
RWRND
NORTH DAKOTA REGIONAL WEATHER ROUNDUP
NATIONAL WEATHER SERVICE EASTERN NORTH DAKOTA/GRAND FORKS ND
200 AM CDT MON JUN 26 2017

  NOTE: "FAIR" INDICATES FEW OR NO CLOUDS BELOW 12,000 FEET WITH NO
  SIGNIFICANT WEATHER AND/OR OBSTRUCTIONS TO VISIBILITY.

NDZ001>003-009>011-017-260800-
...NORTHWEST NORTH DAKOTA...

CITY           SKY/WX    TMP DP  RH WIND       PRES   REMARKS
WILLISTON      FAIR      51  43  74 CALM      30.24S
MINOT          MOCLDY    50  42  74 S5        30.24S
MINOT AFB      MOCLDY    46  41  83 CALM      30.23F
$$

NDZ018>021-031>035-040>046-260800-
...SOUTHWEST NORTH DAKOTA...

CITY           SKY/WX    TMP DP  RH WIND       PRES   REMARKS
BISMARCK       FAIR      47  43  86 E5        30.26S
DICKINSON      FAIR      47  40  76 SE9       30.23S
GARRISON         N/A     43  38  82 CALM      30.25S
HETTINGER      FAIR      46  38  73 CALM      30.25S
$$

NDZ004>008-012>016-024-026-027-054-260800-
...NORTHEAST NORTH DAKOTA...

CITY           SKY/WX    TMP DP  RH WIND       PRES   REMARKS
GRAND FORKS    FAIR      45  42  89 W7        30.20F
GRAND FORKS AF FAIR      43  41  92 W6        30.21S
DEVILS LAKE    FAIR      42  40  92 NW3       30.25S
$$

NDZ022-023-025-028>030-036>039-047>053-260800-
...SOUTHEAST NORTH DAKOTA...

CITY           SKY/WX    TMP DP  RH WIND       PRES   REMARKS
JAMESTOWN      FAIR      45  42  89 CALM      30.23S
FARGO          FAIR      46  39  76 CALM      30.21R
WAHPETON       FAIR      43  37  81 NW6       30.21S
$$




USA.gov is the U.S. government's official web portal to all federal, state and local government web resources and services.